Weather History for Lafayette, LA

Change the Weather History Date:

Wednesday, November 21, 2012

  Actual Average Record
Temperature  
Mean Temperature 64 °F 60 °F  
Max Temperature 79 °F 71 °F 85 °F (1915)
Min Temperature 49 °F 50 °F 26 °F (1937)
Degree Days  
Heating Degree Days 1 6  
Month to date heating degree days 114 94  
Since 1 July heating degree days 161 130  
Growing Degree Days 14 (Base 50)    
Moisture  
Dew Point 49 °F    
Average Humidity 60    
Maximum Humidity 89    
Minimum Humidity 30    
Precipitation  
Precipitation 0.00 in 0.14 in 3.28 in (1953)
Month to date precipitation 1.05 3.02  
Year to date precipitation 59.04 53.59  
Snow  
Snow 0.00 in 0.00 in 0.00 in ()
Month to date snowfall 0.0 0.0  
Since 1 July snowfall 0.0 0.0  
Since 1 September snowfall 0.0 0.0  
Snow Depth 0.00 in    
Sea Level Pressure  
Sea Level Pressure 30.19 in    
Wind  
Wind Speed 4 mph (NNW)    
Max Wind Speed 14 mph    
Max Gust Speed 18 mph    
Visibility 10 miles    
Events      
T = Trace of Precipitation, MM = Missing Value Source: NWS Daily Summary

Daily Weather History Graph

Daily Weather History Graph

Search for Another Location

Airport:

Trip Planner

Search our weather history database for the weather conditions in past years. The results will help you decide how hot, cold, wet, or windy it might be!

Date:

Astronomy

Nov. 21, 2012 Rise Set
Actual Time 6:38 AM CST 5:08 PM CST
Civil Twilight 6:13 AM CST 5:34 PM CST
Nautical Twilight 5:43 AM CST 6:03 PM CST
Astronomical Twilight 5:15 AM CST 6:32 PM CST
Moon 1:01 PM CST (11/21) 12:24 AM CST (11/21)
Length of Visible Light 11h 21m
Length of Day
10h 30m
First Quarter, 62% of the Moon is Illuminated
Nov 21
First Quarter
Nov 28
Full
Dec 6
Last Quarter
Dec 13
New
Dec 19
First Quarter

Hourly Weather History & Observations

Time (CST) Temp. Dew Point Humidity Pressure Visibility Wind Dir Wind Speed Gust Speed Precip Events Conditions
12:53 AM 52.0 °F 48.0 °F 86% 30.18 in 10.0 mi Calm Calm - N/A   Clear
1:53 AM 52.0 °F 46.9 °F 83% 30.18 in 10.0 mi Calm Calm - N/A   Clear
2:53 AM 51.1 °F 48.9 °F 92% 30.18 in 7.0 mi Calm Calm - N/A   Clear
3:53 AM 51.1 °F 48.9 °F 92% 30.19 in 9.0 mi Calm Calm - N/A   Clear
4:53 AM 52.0 °F 48.0 °F 86% 30.19 in 7.0 mi Calm Calm - 0.01 in   Clear
5:53 AM 53.1 °F 48.0 °F 83% 30.20 in 8.0 mi Calm Calm - N/A   Clear
6:53 AM 54.0 °F 48.0 °F 80% 30.22 in 8.0 mi NW 4.6 mph - N/A   Clear
7:53 AM 57.9 °F 48.9 °F 72% 30.23 in 9.0 mi WNW 5.8 mph - N/A   Clear
8:53 AM 64.9 °F 54.0 °F 68% 30.25 in 9.0 mi NW 8.1 mph - N/A   Clear
9:53 AM 69.1 °F 54.0 °F 58% 30.25 in 10.0 mi NNW 8.1 mph - N/A   Clear
10:53 AM 72.0 °F 54.0 °F 53% 30.24 in 10.0 mi NW 6.9 mph - N/A   Clear
11:53 AM 75.0 °F 55.0 °F 50% 30.21 in 10.0 mi NW 9.2 mph - N/A   Clear
12:53 PM 78.1 °F 52.0 °F 40% 30.18 in 10.0 mi NNW 12.7 mph - N/A   Scattered Clouds
1:53 PM 78.1 °F 46.0 °F 32% 30.16 in 10.0 mi NNW 9.2 mph - N/A   Clear
2:53 PM 78.1 °F 45.0 °F 31% 30.15 in 10.0 mi North 5.8 mph - N/A   Clear
3:53 PM 75.9 °F 43.0 °F 31% 30.15 in 10.0 mi North 9.2 mph - N/A   Clear
4:53 PM 70.0 °F 45.0 °F 41% 30.16 in 10.0 mi NE 4.6 mph - N/A   Clear
5:53 PM 62.1 °F 51.1 °F 67% 30.17 in 10.0 mi Calm Calm - N/A   Clear
6:53 PM 59.0 °F 51.1 °F 75% 30.18 in 10.0 mi Calm Calm - N/A   Clear
7:53 PM 57.0 °F 51.1 °F 81% 30.19 in 10.0 mi Calm Calm - N/A   Clear
8:53 PM 54.0 °F 50.0 °F 86% 30.20 in 10.0 mi Calm Calm - N/A   Clear
9:53 PM 53.1 °F 50.0 °F 89% 30.21 in 10.0 mi Calm Calm - N/A   Clear
10:53 PM 51.1 °F 48.9 °F 92% 30.20 in 10.0 mi Calm Calm - N/A   Clear
11:53 PM 50.0 °F 46.9 °F 89% 30.20 in 10.0 mi Calm Calm - N/A   Clear